Flag for U.S.A. Weather past 2 weeks in Overland Park, Kansas, U.S.A.

Now
64 °F

Low clouds.


Feels Like: 64 °F
Forecast: 55 / 64 °F
Wind: 13 mph from North

Location: Johnson County Executive Airport

Current Time: May 30, 2015 at 5:45:16 AM

Latest Report: May 30, 2015 at 4:53 AM


Visibility: 7 mi

Pressure: 29.96 "Hg

Humidity: 97%

Dew point: 63 °F

Location of Overland ParkLocation

Historic Weather in Overland Park — Graph

°F

Overland Park temperature yesterday

Maximum temperature yesterday: 69 °F (at 3:53 PM)
Minimum temperature yesterday: 63 °F (at 1:53 AM)
Average temperature yesterday: 66 °F

Past Weeks' High & Low Weather Summary

 TemperatureHumidityPressure
High81 °F (May 16, 4:53 PM)100% (May 15, 3:02 AM)30.31 "Hg (May 15, 3:02 AM)
Low46 °F (May 19, 5:53 AM)40% (May 21, 6:53 PM)29.68 "Hg (May 17, 2:53 AM)
Average64 °F80%30.00 "Hg
* Reported May 15 3:02 AM — May 30 3:56 AM, Overland Park, Weather by CustomWeather, © 2015

Note: Actual official high and low records may vary slightly from our data, if they occured in-between our weather recording intervals... More about our weather records

Advertising

Overland Park weather history for previous 24 hours

 ConditionsComfort  
Time TempWeatherWind HumidityBarometerVisibility
3:56 AM
Sat, May 30
65 °FLow clouds.6 mph97%29.97 "Hg10 mi
2:53 AM64 °FPassing clouds.5 mph100%29.94 "Hg10 mi
1:53 AM63 °FPassing clouds.No wind100%29.95 "Hg10 mi
12:53 AM64 °FClear.3 mph100%29.95 "Hg9 mi
11:57 PM
Fri, May 29
63 °FFog.5 mph100%29.98 "Hg2 mi
10:53 PM65 °FOvercast.3 mph97%29.98 "Hg10 mi
9:53 PM65 °FPassing clouds.3 mph100%29.95 "Hg10 mi
8:53 PM66 °FPassing clouds.No wind96%29.93 "Hg10 mi
7:53 PM68 °FSunny.3 mph90%29.92 "Hg10 mi
6:53 PM69 °FScattered clouds.7 mph87%29.93 "Hg10 mi
5:53 PM68 °FScattered clouds.8 mph93%29.93 "Hg10 mi
4:53 PM68 °FScattered clouds.8 mph90%29.93 "Hg10 mi
3:53 PM69 °FLight rain. Mostly cloudy.9 mph93%29.96 "Hg10 mi
2:53 PM68 °FLight rain. Overcast.5 mph93%29.97 "Hg8 mi
1:53 PM68 °FLight rain. Mostly cloudy.5 mph93%29.98 "Hg10 mi
12:53 PM67 °FLight rain. Overcast.7 mph93%29.99 "Hg10 mi
11:53 AM67 °FLight rain. Overcast.7 mph93%29.99 "Hg7 mi
10:53 AM68 °FLight rain. Mostly cloudy.7 mph87%29.97 "Hg10 mi
9:53 AM68 °FScattered clouds.10 mph87%29.97 "Hg10 mi
8:53 AM65 °FLight rain. Overcast.9 mph94%29.97 "Hg8 mi
7:53 AM65 °FLight rain. Overcast.6 mph97%29.96 "Hg10 mi
6:53 AM64 °FRain. Fog.6 mph100%29.97 "Hg5 mi
6:01 AM65 °FHeavy rain. Fog.7 mph100%29.98 "Hg3 mi
5:00 AM64 °FFog.8 mph100%29.93 "Hg1 mi
Weather by CustomWeather, © 2015

See weather overviewHow to use our weather pages